SCP
0 0 0 0 0 0 0 0 0 0 0 0 0 0 0 0 0 0 0 0 0 0 0 0 0 0 0 1 1 2 3 4 5 5 5 5 5 4 3 3 2 1 0 0
0 0 0 0 0 0 0 0 0 0 0 0 0 0 0 0 0 0 0 0 0 0 0 0 0 0 0 0 1 2 3 4 5 5 5 5 4 4 3 2 2 1 0 0
0 0 0 0 0 0 0 0 0 0 0 0 0 0 0 0 0 0 0 0 0 0 0 0 0 0 0 0 1 2 3 4 4 5 6 5 4 3 2 1 1 1 0 0
0 0 0 0 0 0 0 0 0 0 0 0 0 0 0 0 0 0 0 0 0 0 0 0 0 0 0 0 0 1 3 4 4 5 6 5 4 3 2 1 0 0 0 0
0 0 0 0 0 0 0 0 0 0 0 0 0 0 0 0 0 0 0 0 0 0 0 0 0 0 0 0 0 1 3 4 5 5 5 6 5 3 1 1 0 0 0 0
0 0 0 0 0 0 0 0 0 0 0 0 0 0 0 0 0 0 0 0 0 0 0 0 0 0 0 0 0 1 2 4 5 5 5 6 5 2 1 0 0 0 0 0
0 0 0 0 0 0 0 0 0 0 0 0 0 0 0 0 0 0 0 0 0 0 0 0 0 0 0 0 0 1 2 4 5 5 5 5 4 2 0 0 0 0 0 0
0 0 0 0 0 0 0 0 0 0 0 0 0 0 0 0 0 0 0 0 0 0 0 0 0 0 0 0 0 1 2 3 4 5 5 4 3 1 0 0 0 0 0 0
0 0 0 0 0 0 0 0 0 0 0 0 0 0 0 0 0 0 0 0 0 0 0 0 0 0 0 0 0 0 2 2 3 3 3 3 2 1 0 0 0 0 0 0
0 0 0 0 0 0 0 0 0 0 0 0 0 0 0 0 0 0 0 0 0 0 0 0 0 0 0 0 0 0 1 1 1 1 2 2 1 1 0 0 0 0 0 0
0 0 0 0 0 0 0 0 0 0 0 0 0 0 0 0 0 0 0 0 0 0 0 0 0 0 0 0 0 0 0 0 0 1 1 1 1 0 0 0 0 0 0 0
0 0 0 0 0 0 0 0 0 0 0 0 0 0 0 0 0 0 0 0 0 0 0 0 0 0 0 0 0 0 0 0 0 0 0 0 0 0 0 0 0 0 0 0
0 0 0 0 0 0 0 0 0 0 0 0 0 0 0 0 0 0 0 0 0 0 0 0 0 0 0 0 0 0 0 0 0 0 0 0 0 0 0 0 0 0 0 0
0 0 0 0 0 0 0 0 0 0 0 0 0 0 0 0 0 0 0 0 0 0 0 0 0 0 0 0 0 0 0 0 0 0 0 0 0 0 0 0 0 0 0 0
0 0 0 0 0 0 0 0 0 0 0 0 0 0 0 0 0 0 0 0 0 0 0 0 0 0 0 0 0 0 0 0 0 0 0 0 0 0 0 0 0 0 0 0
0 0 0 0 0 0 0 0 0 0 0 0 0 0 0 0 0 0 0 0 0 0 0 0 0 0 0 0 0 0 0 0 0 0 0 0 0 0 0 0 0 0 0 0
0 0 0 0 0 0 0 0 0 0 0 0 0 0 0 0 0 0 0 0 0 0 0 0 0 0 0 0 0 0 0 0 0 0 0 0 0 0 0 0 0 0 0 0
0 0 0 0 0 0 0 0 0 0 0 0 0 0 0 0 0 0 0 0 0 0 0 0 0 0 0 0 0 0 0 0 0 0 0 0 0 0 0 0 0 0 0 0
0 0 0 0 0 0 0 0 0 0 0 0 0 0 0 0 0 0 0 0 0 0 0 0 0 0 0 0 0 0 0 0 0 0 0 0 0 0 0 0 0 0 0 0
0 0 0 0 0 0 0 0 0 0 0 0 0 0 0 0 0 0 0 0 0 0 0 0 0 0 0 0 0 0 0 0 0 0 0 0 0 0 0 0 0 0 0 0
0 0 0 0 0 0 0 0 0 0 0 0 0 0 0 0 0 0 0 0 0 0 0 0 0 0 0 0 0 0 0 0 0 0 0 0 0 0 0 0 0 0 0 0
0 0 0 0 0 0 0 0 0 0 0 0 0 0 0 0 0 0 0 0 0 0 0 0 0 0 0 0 0 0 0 0 0 0 0 0 0 0 0 0 0 0 0 0
0 0 0 0 0 0 0 0 0 0 0 0 0 0 0 0 0 0 0 0 0 0 0 0 0 0 0 0 0 0 0 0 0 0 0 0 0 0 0 0 0 0 0 0
0 0 0 0 0 0 0 0 0 0 0 0 0 0 0 0 0 0 0 0 0 0 0 0 0 0 0 0 0 0 0 0 0 0 0 0 0 0 0 0 0 0 0 0
0 0 0 0 0 0 0 0 0 0 0 0 0 0 0 0 0 0 0 0 0 0 0 0 0 0 0 0 0 0 0 0 0 0 0 0 0 0 0 0 0 0 0 0
0 0 0 0 0 0 0 0 0 0 0 0 0 0 0 0 0 0 0 0 0 0 0 0 0 0 0 0 0 0 0 0 0 0 0 0 0 0 0 0 0 0 0 0
Wind_Speed
5 4 7 10 8 5 4 3 3 4 3 2 5 9 12 9 8 11 12 12 12 13 11 8 9 9 8 8 9 11 13 13 12 9 10 9 9 8 7 7 9 10 10 10
5 7 7 7 6 3 2 2 3 3 4 3 4 9 11 11 11 14 15 14 13 12 10 9 8 7 8 8 9 10 12 13 14 13 12 9 8 6 6 5 7 9 11 11
6 5 8 7 6 6 4 4 3 2 5 5 5 9 8 8 7 10 12 13 13 13 11 9 8 8 7 7 9 9 11 12 13 12 7 5 4 3 2 4 5 7 9 10
4 3 7 8 7 6 4 2 2 1 3 4 3 7 10 7 8 7 8 8 9 9 8 7 7 7 7 8 7 8 9 10 11 11 11 13 11 9 9 7 5 5 7 9
5 4 6 7 5 6 4 4 5 4 3 3 2 3 12 6 5 6 5 3 3 4 4 5 6 7 7 6 5 6 7 8 9 11 14 15 11 7 5 6 7 6 5 7
3 2 3 4 4 6 6 6 5 5 4 4 5 5 10 5 4 4 4 3 2 2 2 3 4 4 5 4 4 4 5 7 9 11 13 15 13 11 12 11 10 7 5 5
3 1 1 4 5 4 6 6 3 2 1 7 4 5 12 10 7 5 3 1 2 2 2 3 4 4 5 5 5 4 5 7 8 10 13 14 15 17 18 15 13 11 8 6
6 4 5 3 5 6 5 7 6 5 4 5 2 7 10 8 6 3 1 1 3 4 4 4 4 4 5 5 5 5 6 7 8 10 11 11 13 12 10 12 12 12 9 7
6 3 3 3 3 7 6 4 4 3 1 4 6 7 10 3 2 2 3 5 6 6 6 6 6 5 5 6 6 7 8 8 8 9 9 10 12 11 11 11 10 8 8 9
5 5 3 3 4 2 4 6 5 4 3 4 6 6 5 3 3 4 5 6 7 7 7 8 7 7 7 6 7 7 8 9 8 8 9 9 11 11 12 12 12 12 12 12
4 6 4 4 5 6 4 4 4 4 3 3 4 8 6 2 0 3 5 7 8 8 7 7 7 7 8 8 6 6 6 6 6 7 8 10 10 11 12 11 12 12 12 13
3 5 3 3 3 6 5 5 6 4 4 4 3 11 5 3 3 4 8 9 9 8 6 6 6 7 7 8 7 5 4 4 5 7 9 11 12 13 12 12 12 13 13 12
4 5 5 1 1 3 4 5 5 4 3 4 5 11 4 4 7 9 10 11 10 9 7 6 6 6 7 7 6 4 2 1 4 8 11 12 12 12 13 13 13 13 13 12
5 4 5 7 5 5 5 6 8 7 5 5 10 13 14 13 13 14 13 11 9 7 6 6 6 6 6 5 4 3 3 4 6 8 11 12 11 12 12 13 13 13 13 13
5 3 2 3 4 4 6 8 11 13 11 9 10 11 17 14 13 12 10 9 8 6 5 6 6 5 4 4 4 4 5 6 7 9 11 11 11 12 12 13 13 13 13 13
3 2 0 2 4 6 8 11 13 14 14 17 17 21 17 12 9 9 9 8 7 6 5 5 5 4 4 3 4 5 6 7 8 10 11 12 13 13 13 13 13 13 13 12
3 3 1 3 3 2 8 11 14 10 10 10 16 17 12 11 10 8 7 6 6 4 3 3 4 3 3 3 5 6 7 9 10 11 11 12 13 13 13 14 13 13 12 11
6 4 1 2 2 6 8 4 6 9 11 12 11 10 8 9 8 5 3 3 3 2 2 2 2 3 4 6 7 8 10 11 12 12 12 12 13 13 13 13 12 11 10 9
5 5 2 1 3 8 8 3 4 5 6 6 8 8 7 5 4 2 1 2 2 2 2 2 3 5 7 8 9 10 11 11 12 12 12 12 13 13 12 12 11 9 8 8
4 4 3 2 3 6 6 2 1 2 4 3 3 5 5 3 3 3 2 3 4 4 4 4 5 7 8 8 9 11 11 12 12 11 12 11 11 12 11 10 9 7 7 6
5 4 5 5 5 8 8 3 2 1 4 3 4 5 4 4 4 1 3 4 5 5 6 6 7 7 7 7 9 11 11 11 11 11 12 11 10 10 10 8 7 7 6 6
7 6 6 5 6 9 4 2 3 6 4 4 5 5 4 3 2 3 4 5 6 6 6 7 7 7 7 7 10 11 11 10 11 11 11 11 9 8 8 8 7 6 6 6
7 8 6 8 9 6 3 4 4 3 4 5 4 4 3 3 4 4 4 6 6 6 6 7 8 8 7 7 9 11 9 10 11 11 10 9 8 7 6 6 6 5 4 4
4 4 4 5 8 7 7 5 4 3 4 4 3 3 3 4 5 5 6 6 6 6 6 7 8 8 8 7 8 9 9 9 10 11 9 8 8 7 6 4 4 4 3 3
4 3 4 6 7 6 5 3 3 2 2 2 2 2 3 5 6 6 7 7 7 6 6 7 7 8 9 8 9 8 8 9 10 9 8 7 6 6 5 4 3 4 2 3
4 5 4 5 5 4 5 3 2 2 2 2 2 1 2 5 7 7 7 6 7 7 7 8 8 9 9 8 8 7 7 8 10 8 7 5 5 4 4 4 4 6 5 7
Wind_Direction
146 154 189 189 184 170 152 163 239 257 309 312 243 252 262 265 262 258 258 257 256 258 258 254 245 244 239 228 216 206 202 200 190 185 185 186 192 190 188 187 180 175 170 165
148 204 196 177 184 201 209 245 262 286 344 343 292 277 267 255 247 245 249 252 253 256 266 259 251 246 239 232 223 215 206 202 196 195 192 189 184 182 181 177 178 176 170 166
170 187 172 173 183 197 222 215 230 282 344 1 343 299 274 270 256 252 248 248 248 245 249 254 251 248 243 236 226 221 212 206 202 194 174 139 107 88 128 174 177 178 169 165
164 179 164 172 184 171 209 208 178 81 37 325 19 304 290 288 303 285 272 258 252 250 247 246 247 249 244 239 231 225 217 208 202 189 176 172 176 179 186 177 163 157 161 160
172 160 155 171 174 150 144 97 90 82 76 341 290 246 282 303 288 296 301 284 265 259 251 255 254 251 254 249 239 232 223 211 201 193 187 187 186 172 145 141 145 147 148 152
117 130 139 146 119 130 124 72 58 55 64 287 222 190 276 263 251 309 336 360 11 357 332 301 295 287 281 276 260 244 227 219 206 197 191 192 181 157 152 157 159 154 147 146
122 109 124 120 110 106 107 95 61 355 282 255 206 198 254 260 262 257 269 13 27 22 10 343 331 317 303 295 279 258 233 225 213 202 196 194 182 171 170 168 166 161 159 159
145 178 191 154 149 150 141 135 158 194 230 281 235 229 255 268 267 250 207 84 26 14 358 335 316 303 292 286 278 264 247 235 218 207 201 191 178 175 173 169 165 167 164 152
147 153 145 146 122 129 135 162 154 128 319 283 276 282 295 286 350 31 26 22 6 347 335 322 314 308 296 286 272 256 248 241 225 208 193 180 175 171 164 159 152 147 143 142
125 119 134 127 104 92 141 142 118 137 181 266 289 270 251 281 357 13 7 355 340 335 328 324 319 311 302 289 281 271 251 236 222 201 184 174 168 162 155 152 151 149 147 145
99 116 130 138 180 176 150 155 142 142 165 182 282 272 227 214 340 348 342 339 331 326 321 319 316 313 312 307 295 280 263 239 209 187 170 156 153 147 146 148 148 147 144 146
124 113 139 200 220 174 164 172 150 160 218 197 226 271 266 258 275 315 323 319 314 312 311 314 315 318 318 315 311 302 279 227 191 164 148 145 142 142 143 143 144 142 141 141
131 116 114 79 321 175 196 189 177 162 167 189 218 263 292 322 318 318 316 312 309 311 316 319 319 319 319 318 318 321 335 122 135 136 136 135 138 140 140 139 139 137 135 133
114 120 160 181 197 177 199 199 190 185 201 221 232 261 287 301 307 309 308 304 301 303 313 317 317 318 321 325 337 3 29 74 108 121 126 130 133 133 131 131 130 130 130 127
102 139 192 227 218 195 212 212 204 209 211 222 246 255 274 286 293 295 296 301 304 309 320 326 324 324 331 352 14 44 60 74 95 109 115 117 117 117 118 120 120 119 118 116
101 131 148 281 244 230 240 231 221 224 229 240 257 270 272 279 282 287 297 305 306 310 319 327 332 343 350 14 46 71 77 83 92 99 105 109 112 112 112 112 111 109 108 108
141 139 148 274 305 325 261 229 215 212 216 217 243 255 273 288 291 293 302 307 302 306 320 331 341 352 11 51 80 87 91 92 92 94 98 102 106 106 106 108 106 107 105 104
142 140 158 280 337 248 247 241 198 212 236 230 241 263 276 279 289 292 307 306 314 330 347 6 23 40 54 72 84 90 91 93 95 94 95 98 101 102 102 103 103 103 104 107
147 148 176 221 266 279 288 261 187 199 260 234 236 261 276 297 305 285 21 28 39 58 61 60 68 77 78 84 92 95 93 93 94 96 97 99 103 105 104 104 105 106 109 110
145 138 177 205 247 256 262 282 153 113 274 245 235 267 286 311 296 280 92 76 77 77 75 76 77 84 86 88 97 99 99 99 99 101 101 101 103 107 108 110 109 108 111 114
174 189 209 218 243 265 258 250 117 224 262 264 258 265 268 247 238 197 103 93 94 91 88 87 84 83 90 98 101 100 100 100 104 105 103 102 104 107 110 107 107 111 111 109
181 189 198 191 218 253 257 150 196 235 262 264 261 258 247 225 163 123 117 116 110 102 99 97 94 89 89 98 104 103 103 107 107 106 104 104 106 109 112 112 110 108 112 110
198 196 190 201 222 242 240 229 255 263 269 271 260 257 216 189 175 147 132 129 123 117 114 110 109 103 95 99 109 111 111 112 111 109 108 109 108 106 112 117 117 110 106 108
241 191 203 248 260 262 264 261 266 263 260 273 268 260 210 186 165 148 140 136 133 129 127 125 122 118 111 107 109 114 119 119 117 115 114 113 112 107 99 94 101 108 113 111
240 197 218 250 271 287 275 248 255 269 282 292 297 270 196 164 157 151 144 141 138 135 132 130 127 123 121 119 116 120 123 122 118 116 116 114 109 109 99 90 97 110 118 142
221 203 210 240 247 247 267 256 230 238 259 263 276 304 151 156 151 144 140 136 134 135 131 128 127 127 127 126 123 123 125 128 128 125 120 113 111 109 109 105 85 81 93 91